TimeCST,TemperatureF,Dew PointF,Humidity,Sea Level PressureIn,VisibilityMPH,Wind Direction,Wind SpeedMPH,Gust SpeedMPH,PrecipitationIn,Events,Conditions,WindDirDegrees,DateUTC
12:35 AM,48.2,44.6,87,29.86,10.0,SSW,11.5,-,N/A,,Overcast,210,2013-01-11 06:35:00
12:55 AM,48.2,44.6,87,29.87,10.0,SW,11.5,-,N/A,,Overcast,220,2013-01-11 06:55:00
1:15 AM,48.2,42.8,82,29.87,10.0,SW,11.5,19.6,N/A,,Overcast,220,2013-01-11 07:15:00
1:35 AM,48.2,42.8,82,29.87,10.0,SW,11.5,-,N/A,,Overcast,220,2013-01-11 07:35:00
2:15 AM,48.2,42.8,82,29.88,10.0,SW,11.5,-,N/A,,Overcast,220,2013-01-11 08:15:00
2:35 AM,48.2,42.8,82,29.88,10.0,SSW,11.5,16.1,N/A,,Overcast,210,2013-01-11 08:35:00
2:55 AM,48.2,42.8,82,29.87,10.0,South,10.4,-,N/A,,Overcast,190,2013-01-11 08:55:00
3:15 AM,48.2,42.8,82,29.87,10.0,SSW,10.4,-,N/A,,Overcast,200,2013-01-11 09:15:00
3:35 AM,48.2,42.8,82,29.87,10.0,South,9.2,-,N/A,,Scattered Clouds,190,2013-01-11 09:35:00
3:55 AM,46.4,42.8,87,29.86,10.0,South,9.2,-,N/A,,Partly Cloudy,190,2013-01-11 09:55:00
4:35 AM,46.4,41.0,81,29.83,10.0,South,8.1,-,N/A,,Clear,180,2013-01-11 10:35:00
5:15 AM,46.4,41.0,81,29.83,10.0,South,6.9,-,N/A,,Clear,190,2013-01-11 11:15:00
5:35 AM,44.6,39.2,81,29.82,10.0,SSE,5.8,-,N/A,,Clear,160,2013-01-11 11:35:00
5:55 AM,42.8,39.2,87,29.81,10.0,SSE,5.8,-,N/A,,Clear,160,2013-01-11 11:55:00
6:15 AM,44.6,41.0,87,29.84,10.0,South,5.8,-,N/A,,Clear,190,2013-01-11 12:15:00
6:35 AM,44.6,41.0,87,29.85,10.0,South,4.6,-,N/A,,Clear,180,2013-01-11 12:35:00
7:15 AM,46.4,41.0,81,29.84,10.0,South,12.7,-,N/A,,Clear,190,2013-01-11 13:15:00
7:35 AM,46.4,41.0,81,29.83,10.0,South,8.1,16.1,N/A,,Clear,180,2013-01-11 13:35:00
7:55 AM,46.4,42.8,87,29.84,10.0,South,10.4,-,N/A,,Clear,190,2013-01-11 13:55:00
8:15 AM,48.2,42.8,82,29.84,10.0,South,11.5,-,N/A,,Clear,190,2013-01-11 14:15:00
8:35 AM,48.2,42.8,82,29.84,10.0,South,10.4,-,N/A,,Clear,190,2013-01-11 14:35:00
9:15 AM,51.8,42.8,71,29.85,10.0,SSW,13.8,18.4,N/A,,Clear,200,2013-01-11 15:15:00
9:35 AM,53.6,42.8,67,29.84,10.0,South,12.7,18.4,N/A,,Clear,190,2013-01-11 15:35:00
10:15 AM,55.4,42.8,63,29.84,10.0,SSW,17.3,24.2,N/A,,Clear,200,2013-01-11 16:15:00
10:55 AM,57.2,42.8,59,29.84,10.0,SSW,16.1,23.0,N/A,,Clear,200,2013-01-11 16:55:00
11:15 AM,59.0,42.8,55,29.83,10.0,SSW,18.4,26.5,N/A,,Clear,200,2013-01-11 17:15:00
12:15 PM,62.6,42.8,48,29.79,10.0,SSW,15.0,21.9,N/A,,Clear,210,2013-01-11 18:15:00
12:35 PM,62.6,42.8,48,29.79,10.0,SSW,18.4,24.2,N/A,,Clear,200,2013-01-11 18:35:00
12:55 PM,62.6,42.8,48,29.78,10.0,SSW,16.1,28.8,N/A,,Clear,200,2013-01-11 18:55:00
1:35 PM,62.6,42.8,48,29.77,10.0,SSW,20.7,26.5,N/A,,Clear,200,2013-01-11 19:35:00
2:15 PM,62.6,42.8,48,29.75,10.0,South,13.8,19.6,N/A,,Clear,190,2013-01-11 20:15:00
2:35 PM,64.4,42.8,45,29.74,10.0,South,16.1,23.0,N/A,,Clear,190,2013-01-11 20:35:00
3:15 PM,66.2,42.8,43,29.74,10.0,South,19.6,27.6,N/A,,Clear,190,2013-01-11 21:15:00
3:35 PM,64.4,42.8,45,29.74,10.0,South,20.7,25.3,N/A,,Clear,190,2013-01-11 21:35:00
3:55 PM,64.4,42.8,45,29.75,10.0,South,13.8,29.9,N/A,,Clear,190,2013-01-11 21:55:00
4:15 PM,64.4,42.8,45,29.75,10.0,South,15.0,-,N/A,,Clear,180,2013-01-11 22:15:00
4:35 PM,62.6,42.8,48,29.73,10.0,South,16.1,21.9,N/A,,Clear,180,2013-01-11 22:35:00
4:55 PM,62.6,42.8,48,29.74,10.0,South,16.1,28.8,N/A,,Clear,190,2013-01-11 22:55:00
5:35 PM,60.8,41.0,48,29.76,10.0,SSW,11.5,-,N/A,,Clear,200,2013-01-11 23:35:00
5:55 PM,60.8,42.8,52,29.75,10.0,South,8.1,-,N/A,,Clear,180,2013-01-11 23:55:00
6:15 PM,59.0,41.0,51,29.75,10.0,South,9.2,-,N/A,,Clear,180,2013-01-12 00:15:00
6:35 PM,59.0,42.8,55,29.76,10.0,South,10.4,-,N/A,,Clear,180,2013-01-12 00:35:00
6:55 PM,59.0,42.8,55,29.77,10.0,South,10.4,-,N/A,,Clear,180,2013-01-12 00:55:00
7:35 PM,59.0,42.8,55,29.78,10.0,South,10.4,-,N/A,,Clear,180,2013-01-12 01:35:00
7:55 PM,57.2,42.8,59,29.78,10.0,South,9.2,-,N/A,,Clear,170,2013-01-12 01:55:00
8:15 PM,57.2,42.8,59,29.79,10.0,South,10.4,-,N/A,,Clear,170,2013-01-12 02:15:00
8:35 PM,57.2,42.8,59,29.79,10.0,South,10.4,-,N/A,,Clear,180,2013-01-12 02:35:00
8:55 PM,57.2,42.8,59,29.80,10.0,South,8.1,-,N/A,,Clear,180,2013-01-12 02:55:00
9:15 PM,57.2,42.8,59,29.80,10.0,South,9.2,-,N/A,,Clear,180,2013-01-12 03:15:00
9:55 PM,57.2,42.8,59,29.81,10.0,South,6.9,-,N/A,,Clear,190,2013-01-12 03:55:00
10:15 PM,57.2,42.8,59,29.81,10.0,South,11.5,-,N/A,,Clear,190,2013-01-12 04:15:00
10:35 PM,57.2,44.6,63,29.82,10.0,South,8.1,-,N/A,,Clear,190,2013-01-12 04:35:00
10:55 PM,57.2,44.6,63,29.82,10.0,South,9.2,-,N/A,,Clear,190,2013-01-12 04:55:00
11:35 PM,57.2,44.6,63,29.81,10.0,South,10.4,-,N/A,,Clear,180,2013-01-12 05:35:00
11:55 PM,57.2,44.6,63,29.81,10.0,South,6.9,-,N/A,,Clear,180,2013-01-12 05:55:00